Regional Weather Roundup
Issued by NWS

Home | Current Version | Previous Version | Graphics & Text | Print | Product List | Glossary Off
Versions: 1 2 3 4 5 6 7 8 9 10 11 12 13 14 15 16 17 18 19 20 21 22 23 24 25 26 27 28 29 30 31 32 33 34 35 36 37 38 39 40 41 42 43 44 45 46 47 48 49 50

000
ASUS43 KMPX 060701
RWRMN
WEATHER ROUNDUP FOR MINNESOTA
NATIONAL WEATHER SERVICE TWIN CITIES/CHANHASSEN MN
200 AM CDT WED MAY 06 2015


NOTE: "FAIR" INDICATES FEW OR NO CLOUDS BELOW 12,000 FEET WITH NO
SIGNIFICANT WEATHER AND/OR OBSTRUCTIONS TO VISIBILITY. N/A MEANS
CURRENT SKY AND/OR WEATHER CONDITIONS ARE NOT AVAILABLE.

MNZ060>063-068>070-060800-
   Twin Cities Metro

CITY           SKY/WX    TMP DP  RH WIND       PRES   REMARKS
TWIN CITIES    CLOUDY    56  54  93 SE12      30.11F FOG
ST PAUL        CLOUDY    56  54  93 SE13      30.12F
CRYSTAL        CLOUDY    58  53  84 SE10      30.10S
BLAINE         CLOUDY    57  55  94 E8        30.11F
LAKEVILLE      CLOUDY    54  52  94 SE9       30.11S
EDEN PRAIRIE   CLOUDY    56  53  90 SE10      30.09F
SOUTH ST PAUL  CLOUDY    56  54  92 SE5       30.11F
LAKE ELMO      DRIZZLE   54  54 100 E6        30.13F
$$
MNZ001>005-007-008-013>017-022>024-027-028-060800-
   Northwest Minnesota

CITY           SKY/WX    TMP DP  RH WIND       PRES   REMARKS
BEMIDJI        MOCLDY    59  39  47 SE8       30.05S
HALLOCK        CLEAR     59  41  51 SE13      29.96S
ROSEAU         CLEAR     57  39  51 S7        30.01S
WARROAD        CLEAR     61  43  51 S9        30.02F
THIEF RVR FALL MOCLDY    55  41  58 SE8       30.01F
CROOKSTON      CLEAR     57  48  72 S9        29.99F
FOSSTON        MOCLDY    59  43  55 SE6       30.02F
DETROIT LAKES  MOCLDY    61  52  72 SE14G20   30.03S
MOORHEAD       MOCLDY    63  54  72 S16       29.99S
PARK RAPIDS    CLOUDY    62  44  51 SE14      30.04F
MAHNOMEN       CLOUDY    61  51  68 SE9       30.01S
$$
MNZ006-009>011-018-025>026-060800-
   North Central Minnesota

CITY           SKY/WX    TMP DP  RH WIND       PRES   REMARKS
BAUDETTE       CLEAR     51  34  52 SE9       30.05F
FLAG ISLAND    CLEAR     61  39  44 SE10      30.02S
INTL FALLS     CLEAR     48  29  47 SE5       30.10S
WASKISH        CLEAR     52  37  58 CALM      30.06F
BIG FORK       CLEAR     52  30  43 SE5       30.10F
LONGVILLE      MOCLDY    57  43  58 SE14      30.07F
GRAND RAPIDS   PTCLDY    52  28  40 SE6       30.11S
CRANE LAKE     CLEAR     46  25  42 CALM      30.15S
COOK           CLEAR     46  27  46 CALM      30.14S
WALKER         FAIR      58  40  51 SE3       30.06F
$$
MNZ012-019>021-037-060800-
   Northeast Minnesota

CITY           SKY/WX    TMP DP  RH WIND       PRES   REMARKS
DULUTH         CLOUDY    49  28  44 E10       30.15S
ELY            CLEAR     39  27  60 CALM      30.15F
HIBBING        PTCLDY    42  25  50 CALM      30.13S
EVELETH        CLEAR     43  28  56 NE3       30.15S
DULUTH HARBOR  CLOUDY    43  36  75 N7        30.17F
TWO HARBORS    PTCLDY    43  32  65 CALM      30.15F
SILVER BAY     PTCLDY    37  28  70 CALM      30.16S
GRAND MARAIS     N/A     43  30  60 CALM      30.19S
G MARAIS ARPRT CLEAR     39  23  52 CALM      30.20S
$$
MNZ029>031-032-039>041-046>048-054>057-064-060800-
   West Central Minnesota

CITY           SKY/WX    TMP DP  RH WIND       PRES   REMARKS
FERGUS FALLS   CLOUDY    59  54  82 SE12      30.02S
WHEATON        CLOUDY    55  52  88 SE16G24   30.01S
MORRIS         CLOUDY    57  52  82 SE20      30.02R
ALEXANDRIA     CLOUDY    56  53  90 SE17G25   30.05F
ELBOW LAKE     CLOUDY    57  54  89 SE15      30.01F
WADENA         CLOUDY    59  52  77 SE10      30.04S
GLENWOOD       CLOUDY    55  54  94 SE13      30.06F
APPLETON       CLOUDY    57  54  88 SE13      30.02S
BENSON         CLOUDY    57  52  82 S14       30.04S
ORTONVILLE     CLOUDY    57  52  82 SE18      30.01R
MADISON        CLOUDY    57  54  88 SE16      30.02S
WILLMAR        CLOUDY    57  54  88 SE16      30.07S
$$
MNZ033>034-036-042>043-049>051-058-059-060800-
   Central Minnesota

CITY           SKY/WX    TMP DP  RH WIND       PRES   REMARKS
ST CLOUD       CLOUDY    56  52  86 SE8       30.09S
SAUK CENTRE    CLOUDY    55  53  90 SE10      30.07S
PAYNESVILLE    CLOUDY    53  51  95 E10       30.07F
AITKIN         CLOUDY    61  41  48 SE7       30.08F
PINE RIVER     CLOUDY    61  46  59 SE13      30.10F
BRAINERD       CLOUDY    59  47  64 SE9       30.08F
STAPLES        CLOUDY    57  50  77 SE10      30.06S
LONG PRAIRIE   CLOUDY    55  52  88 SE8       30.07F
LITTLE FALLS   CLOUDY    55  50  82 SE12      30.09S
LITCHFIELD     CLOUDY    55  55 100 SE10      30.08S
BUFFALO        CLOUDY    55  52  88 E8        30.11S
MAPLE LAKE     CLOUDY    57  55  92 SE5       30.10S
$$
MNZ037-044-045-052-053-060800-
   East Central Minnesota

CITY           SKY/WX    TMP DP  RH WIND       PRES   REMARKS
PRINCETON      CLOUDY    57  54  88 SE7       30.11S
MORA           CLOUDY    55  46  71 SE8       30.13S
CAMBRIDGE      CLOUDY    59  48  67 E7        30.10S
RUSH CITY      CLOUDY    57  50  79 SE13G21   30.13S
MOOSE LAKE     CLOUDY    59  36  41 SE5       30.11F
HINCKLEY       CLOUDY    59  41  51 SE7       30.12F
CLOQUET        CLOUDY    46  30  53 E3        30.14F
MCGREGOR       CLOUDY    55  36  47 E5        30.10F
$$
MNZ071>073-080-081-089-090-097-098-060800-
   Southwest Minnesota

CITY           SKY/WX    TMP DP  RH WIND       PRES   REMARKS
MONTEVIDEO     CLOUDY    57  54  88 S15       30.04S
GRANITE FALLS  CLOUDY    56  53  91 SE10G22   30.05F
CANBY          CLOUDY    58  55  91 SE12      30.02S FOG
MARSHALL       CLOUDY    57  52  82 SE15      30.02S
REDWOOD FALLS  CLOUDY    56  54  93 SE14      30.05S FOG
OLIVIA         CLOUDY    52  50  93 SE12      30.06R FOG
WORTHINGTON    CLOUDY    57  55  94 SE15      30.02F VSB 1/2
JACKSON        FOG       57  55  94 SE14      30.04F VSB 1/2
TRACY          CLOUDY    57  56  95 SE12      30.03F FOG
SLAYTON        LGT RAIN  56  56 100 SE14G20   30.02F VSB 1/2
$$
MNZ065>067-074>077-082>085-091>093-060800-
   South Central Minnesota

CITY           SKY/WX    TMP DP  RH WIND       PRES   REMARKS
MANKATO        CLOUDY    55  54  94 SE12      30.08F
NEW ULM        CLOUDY    55  54  94 SE10      30.07F FOG
ST JAMES       CLOUDY    57  55  94 SE12      30.06F FOG
FAIRMONT       CLOUDY    55  52  88 SE16      30.05F VSB 3/4
GLENCOE        CLOUDY    56  55  96 E10       30.08S
FARIBAULT      CLOUDY    54  54 100 SE10      30.10F FOG
OWATONNA       CLOUDY    54  52  94 SE14      30.09F FOG
WASECA         CLOUDY    54  52  94 SE12      30.09F FOG
ALBERT LEA     CLOUDY    55  55 100 SE10      30.09F VSB 1/4
$$
MNZ078>079-086>088-094>096-060800-
   Southeast Minnesota

CITY           SKY/WX    TMP DP  RH WIND       PRES   REMARKS
ROCHESTER      FOG       53  53 100 SE15      30.12F VSB 1/2
RED WING       CLOUDY    55  54  94 SE7       30.12F
STANTON        CLOUDY    56  53  90 SE6       30.10F FOG
DODGE CENTER   FOG       54  54 100 SE14      30.11F VSB 1/4
WINONA         CLOUDY    54  52  94 SE7       30.15F
AUSTIN         FOG       54  54 100 SE9       30.10F VSB 1/4
PRESTON        FOG       53  52  97 SE8       30.14F VSB 1/4
$$
ABBREVIATIONS USED IN REMARKS
   TC - TEMPERATURES IN CELSIUS
  WCI - WIND CHILL INDEX
   HX - HEAT INDEX
  VSB - VISIBILITY
$$


USA.gov is the U.S. government's official web portal to all federal, state and local government web resources and services.